Year,Month,Day,Hour,Minute,Value (Times are PST for temperature in C)
2009,07,27,00,00,18.30
2009,07,27,00,01,18.30
2009,07,27,00,02,18.30
2009,07,27,00,03,18.20
2009,07,27,00,04,18.20
2009,07,27,00,05,18.20
2009,07,27,00,06,18.10
2009,07,27,00,07,18.10
2009,07,27,00,08,18.10
2009,07,27,00,09,18.10
2009,07,27,00,10,18.00
2009,07,27,00,11,18.00
2009,07,27,00,12,18.00
2009,07,27,00,13,17.90
2009,07,27,00,14,17.90
2009,07,27,00,15,17.90
2009,07,27,00,16,17.90
2009,07,27,00,17,17.80
2009,07,27,00,18,17.80
2009,07,27,00,19,17.80
2009,07,27,00,20,17.80
2009,07,27,00,21,17.70
2009,07,27,00,22,17.70
2009,07,27,00,23,17.70
2009,07,27,00,24,17.70
2009,07,27,00,25,17.70
2009,07,27,00,26,17.70
2009,07,27,00,27,17.60
2009,07,27,00,28,17.60
2009,07,27,00,29,17.60
2009,07,27,00,30,17.60
2009,07,27,00,31,17.60
2009,07,27,00,32,17.60
2009,07,27,00,33,17.60
2009,07,27,00,34,17.60
2009,07,27,00,35,17.60
2009,07,27,00,36,17.60
2009,07,27,00,37,17.60
2009,07,27,00,38,17.60
2009,07,27,00,39,17.60
2009,07,27,00,40,17.60
2009,07,27,00,41,17.60
2009,07,27,00,42,17.60
2009,07,27,00,43,17.60
2009,07,27,00,44,17.60
2009,07,27,00,45,17.60
2009,07,27,00,46,17.60
2009,07,27,00,47,17.60
2009,07,27,00,48,17.60
2009,07,27,00,49,17.60
2009,07,27,00,50,17.60
2009,07,27,00,51,17.60
2009,07,27,00,52,17.60
2009,07,27,00,53,17.60
2009,07,27,00,54,17.60
2009,07,27,00,55,17.60
2009,07,27,00,56,17.60
2009,07,27,00,57,17.60
2009,07,27,00,58,17.60
2009,07,27,00,59,17.60
2009,07,27,01,00,17.60
2009,07,27,01,01,17.60
2009,07,27,01,02,17.60
2009,07,27,01,03,17.60
2009,07,27,01,04,17.60
2009,07,27,01,05,17.60
2009,07,27,01,06,17.60
2009,07,27,01,07,17.50
2009,07,27,01,08,17.50
2009,07,27,01,09,17.50
2009,07,27,01,10,17.50
2009,07,27,01,11,17.50
2009,07,27,01,12,17.50
2009,07,27,01,13,17.50
2009,07,27,01,14,17.50
2009,07,27,01,15,17.40
2009,07,27,01,16,17.40
2009,07,27,01,17,17.40
2009,07,27,01,18,17.40
2009,07,27,01,19,17.40
2009,07,27,01,20,17.40
2009,07,27,01,21,17.40
2009,07,27,01,22,17.30
2009,07,27,01,23,17.30
2009,07,27,01,24,17.30
2009,07,27,01,25,17.30
2009,07,27,01,26,17.30
2009,07,27,01,27,17.30
2009,07,27,01,28,17.30
2009,07,27,01,29,17.30
2009,07,27,01,30,17.30
2009,07,27,01,31,17.30
2009,07,27,01,32,17.30
2009,07,27,01,33,17.30
2009,07,27,01,34,17.30
2009,07,27,01,35,17.20
2009,07,27,01,36,17.20
2009,07,27,01,37,17.20
2009,07,27,01,38,17.20
2009,07,27,01,39,17.20
2009,07,27,01,40,17.20
2009,07,27,01,41,17.20
2009,07,27,01,42,17.20
2009,07,27,01,43,17.20
2009,07,27,01,44,17.20
2009,07,27,01,45,17.20
2009,07,27,01,46,17.20
2009,07,27,01,47,17.20
2009,07,27,01,48,17.20
2009,07,27,01,49,17.10
2009,07,27,01,50,17.10
2009,07,27,01,51,17.10
2009,07,27,01,52,17.10
2009,07,27,01,53,17.10
2009,07,27,01,54,17.10
2009,07,27,01,55,17.10
2009,07,27,01,56,17.10
2009,07,27,01,57,17.10
2009,07,27,01,58,17.10
2009,07,27,01,59,17.10
2009,07,27,02,00,17.10
2009,07,27,02,01,17.10
2009,07,27,02,02,17.00
2009,07,27,02,03,17.00
2009,07,27,02,04,17.00
2009,07,27,02,05,17.00
2009,07,27,02,06,17.00
2009,07,27,02,07,17.00
2009,07,27,02,08,16.90
2009,07,27,02,09,16.90
2009,07,27,02,10,16.90
2009,07,27,02,11,16.90
2009,07,27,02,12,16.90
2009,07,27,02,13,16.80
2009,07,27,02,14,16.80
2009,07,27,02,15,16.80
2009,07,27,02,16,16.80
2009,07,27,02,17,16.80
2009,07,27,02,18,16.80
2009,07,27,02,19,16.70
2009,07,27,02,20,16.70
2009,07,27,02,21,16.70
2009,07,27,02,22,16.70
2009,07,27,02,23,16.60
2009,07,27,02,24,16.60
2009,07,27,02,25,16.60
2009,07,27,02,26,16.50
2009,07,27,02,27,16.50
2009,07,27,02,28,16.50
2009,07,27,02,29,16.40
2009,07,27,02,30,16.40
2009,07,27,02,31,16.40
2009,07,27,02,32,16.40
2009,07,27,02,33,16.30
2009,07,27,02,34,16.30
2009,07,27,02,35,16.30
2009,07,27,02,36,16.30
2009,07,27,02,37,16.30
2009,07,27,02,38,16.30
2009,07,27,02,39,16.20
2009,07,27,02,40,16.20
2009,07,27,02,41,16.20
2009,07,27,02,42,16.20
2009,07,27,02,43,16.20
2009,07,27,02,44,16.10
2009,07,27,02,45,16.10
2009,07,27,02,46,16.10
2009,07,27,02,47,16.10
2009,07,27,02,48,16.00
2009,07,27,02,49,16.00
2009,07,27,02,50,15.90
2009,07,27,02,51,15.90
2009,07,27,02,52,15.90
2009,07,27,02,53,15.90
2009,07,27,02,54,15.90
2009,07,27,02,55,15.80
2009,07,27,02,56,15.80
2009,07,27,02,57,15.80
2009,07,27,02,58,15.80
2009,07,27,02,59,15.80
2009,07,27,03,00,15.70
2009,07,27,03,01,15.70
2009,07,27,03,02,15.70
2009,07,27,03,03,15.70
2009,07,27,03,04,15.60
2009,07,27,03,05,15.60
2009,07,27,03,06,15.50
2009,07,27,03,07,15.50
2009,07,27,03,08,15.40
2009,07,27,03,09,15.40
2009,07,27,03,10,15.30
2009,07,27,03,11,15.30
2009,07,27,03,12,15.30
2009,07,27,03,13,15.20
2009,07,27,03,14,15.20
2009,07,27,03,15,15.20
2009,07,27,03,16,15.10
2009,07,27,03,17,15.10
2009,07,27,03,18,15.00
2009,07,27,03,19,15.00
2009,07,27,03,20,14.90
2009,07,27,03,21,14.90
2009,07,27,03,22,14.90
2009,07,27,03,23,14.90
2009,07,27,03,24,14.80
2009,07,27,03,25,14.80
2009,07,27,03,26,14.80
2009,07,27,03,27,14.80
2009,07,27,03,28,14.70
2009,07,27,03,29,14.70
2009,07,27,03,30,14.70
2009,07,27,03,31,14.70
2009,07,27,03,32,14.70
2009,07,27,03,33,14.70
2009,07,27,03,34,14.70
2009,07,27,03,35,14.70
2009,07,27,03,36,14.70
2009,07,27,03,37,14.70
2009,07,27,03,38,14.70
2009,07,27,03,39,14.70
2009,07,27,03,40,14.60
2009,07,27,03,41,14.70
2009,07,27,03,42,14.70
2009,07,27,03,43,14.70
2009,07,27,03,44,14.70
2009,07,27,03,45,14.70
2009,07,27,03,46,14.70
2009,07,27,03,47,14.70
2009,07,27,03,48,14.70
2009,07,27,03,49,14.70
2009,07,27,03,50,14.70
2009,07,27,03,51,14.70
2009,07,27,03,52,14.80
2009,07,27,03,53,14.80
2009,07,27,03,54,14.80
2009,07,27,03,55,14.80
2009,07,27,03,56,14.80
2009,07,27,03,57,14.80
2009,07,27,03,58,14.80
2009,07,27,03,59,14.80
2009,07,27,04,00,14.70
2009,07,27,04,01,14.70
2009,07,27,04,02,14.70
2009,07,27,04,03,14.70
2009,07,27,04,04,14.70
2009,07,27,04,05,14.80
2009,07,27,04,06,14.80
2009,07,27,04,07,14.80
2009,07,27,04,08,14.80
2009,07,27,04,09,14.80
2009,07,27,04,10,14.80
2009,07,27,04,11,14.80
2009,07,27,04,12,14.80
2009,07,27,04,13,14.80
2009,07,27,04,14,14.80
2009,07,27,04,15,14.80
2009,07,27,04,16,14.80
2009,07,27,04,17,14.80
2009,07,27,04,18,14.80
2009,07,27,04,19,14.80
2009,07,27,04,20,14.80
2009,07,27,04,21,14.80
2009,07,27,04,22,14.80
2009,07,27,04,23,14.80
2009,07,27,04,24,14.80
2009,07,27,04,25,14.80
2009,07,27,04,26,14.80
2009,07,27,04,27,14.80
2009,07,27,04,28,14.80
2009,07,27,04,29,14.80
2009,07,27,04,30,14.80
2009,07,27,04,31,14.80
2009,07,27,04,32,14.80
2009,07,27,04,33,14.80
2009,07,27,04,34,14.90
2009,07,27,04,35,14.80
2009,07,27,04,36,14.80
2009,07,27,04,37,14.80
2009,07,27,04,38,14.80
2009,07,27,04,39,14.80
2009,07,27,04,40,14.80
2009,07,27,04,41,14.80
2009,07,27,04,42,14.80
2009,07,27,04,43,14.80
2009,07,27,04,44,14.80
2009,07,27,04,45,14.80
2009,07,27,04,46,14.80
2009,07,27,04,47,14.80
2009,07,27,04,48,14.80
2009,07,27,04,49,14.80
2009,07,27,04,50,14.80
2009,07,27,04,51,14.80
2009,07,27,04,52,14.80
2009,07,27,04,53,14.80
2009,07,27,04,54,14.80
2009,07,27,04,55,14.80
2009,07,27,04,56,14.80
2009,07,27,04,57,14.80
2009,07,27,04,58,14.80
2009,07,27,04,59,14.80
2009,07,27,05,00,14.80
2009,07,27,05,01,14.90
2009,07,27,05,02,14.90
2009,07,27,05,03,14.90
2009,07,27,05,04,14.90
2009,07,27,05,05,14.90
2009,07,27,05,06,14.90
2009,07,27,05,07,14.90
2009,07,27,05,08,14.90
2009,07,27,05,09,14.90
2009,07,27,05,10,14.90
2009,07,27,05,11,15.00
2009,07,27,05,12,15.00
2009,07,27,05,13,15.00
2009,07,27,05,14,15.00
2009,07,27,05,15,15.10
2009,07,27,05,16,15.10
2009,07,27,05,17,15.10
2009,07,27,05,18,15.10
2009,07,27,05,19,15.10
2009,07,27,05,20,15.10
2009,07,27,05,21,15.10
2009,07,27,05,22,15.10
2009,07,27,05,23,15.10
2009,07,27,05,24,15.10
2009,07,27,05,25,15.20
2009,07,27,05,26,15.20
2009,07,27,05,27,15.20
2009,07,27,05,28,15.30
2009,07,27,05,29,15.30
2009,07,27,05,30,15.30
2009,07,27,05,31,15.30
2009,07,27,05,32,15.30
2009,07,27,05,33,15.30
2009,07,27,05,34,15.40
2009,07,27,05,35,15.40
2009,07,27,05,36,15.40
2009,07,27,05,37,15.40
2009,07,27,05,38,15.40
2009,07,27,05,39,15.40
2009,07,27,05,40,15.40
2009,07,27,05,41,15.40
2009,07,27,05,42,15.40
2009,07,27,05,43,15.40
2009,07,27,05,44,15.40
2009,07,27,05,45,15.40
2009,07,27,05,46,15.40
2009,07,27,05,47,15.40
2009,07,27,05,48,15.40
2009,07,27,05,49,15.40
2009,07,27,05,50,15.40
2009,07,27,05,51,15.40
2009,07,27,05,52,15.40
2009,07,27,05,53,15.40
2009,07,27,05,54,15.40
2009,07,27,05,55,15.50
2009,07,27,05,56,15.50
2009,07,27,05,57,15.50
2009,07,27,05,58,15.50
2009,07,27,05,59,15.60
2009,07,27,06,00,15.60
2009,07,27,06,01,15.60
2009,07,27,06,02,15.60
2009,07,27,06,03,15.70
2009,07,27,06,04,15.70
2009,07,27,06,05,15.70
2009,07,27,06,06,15.80
2009,07,27,06,07,15.80
2009,07,27,06,08,15.80
2009,07,27,06,09,15.80
2009,07,27,06,10,15.80
2009,07,27,06,11,15.90
2009,07,27,06,12,15.90
2009,07,27,06,13,15.90
2009,07,27,06,14,16.00
2009,07,27,06,15,16.00
2009,07,27,06,16,16.10
2009,07,27,06,17,16.10
2009,07,27,06,18,16.20
2009,07,27,06,19,16.20
2009,07,27,06,20,16.30
2009,07,27,06,21,16.30
2009,07,27,06,22,16.40
2009,07,27,06,23,16.40
2009,07,27,06,24,16.50
2009,07,27,06,25,16.60
2009,07,27,06,26,16.60
2009,07,27,06,27,16.70
2009,07,27,06,28,16.70
2009,07,27,06,29,16.70
2009,07,27,06,30,16.80
2009,07,27,06,31,16.80
2009,07,27,06,32,16.80
2009,07,27,06,33,16.90
2009,07,27,06,34,16.90
2009,07,27,06,35,17.00
2009,07,27,06,36,17.00
2009,07,27,06,37,17.10
2009,07,27,06,38,17.10
2009,07,27,06,39,17.10
2009,07,27,06,40,17.20
2009,07,27,06,41,17.20
2009,07,27,06,42,17.20
2009,07,27,06,43,17.20
2009,07,27,06,44,17.20
2009,07,27,06,45,17.20
2009,07,27,06,46,17.20
2009,07,27,06,47,17.20
2009,07,27,06,48,17.20
2009,07,27,06,49,17.20
2009,07,27,06,50,17.20
2009,07,27,06,51,17.20
2009,07,27,06,52,17.20
2009,07,27,06,53,17.20
2009,07,27,06,54,17.10
2009,07,27,06,55,17.10
2009,07,27,06,56,17.10
2009,07,27,06,57,17.10
2009,07,27,06,58,17.10
2009,07,27,06,59,17.10
2009,07,27,07,00,17.10
2009,07,27,07,01,17.10
2009,07,27,07,02,17.10
2009,07,27,07,03,17.10
2009,07,27,07,04,17.10
2009,07,27,07,05,17.10
2009,07,27,07,06,17.10
2009,07,27,07,07,17.10
2009,07,27,07,08,17.10
2009,07,27,07,09,17.20
2009,07,27,07,10,17.20
2009,07,27,07,11,17.20
2009,07,27,07,12,17.20
2009,07,27,07,13,17.30
2009,07,27,07,14,17.30
2009,07,27,07,15,17.30
2009,07,27,07,16,17.30
2009,07,27,07,17,17.40
2009,07,27,07,18,17.40
2009,07,27,07,19,17.40
2009,07,27,07,20,17.50
2009,07,27,07,21,17.50
2009,07,27,07,22,17.50
2009,07,27,07,23,17.60
2009,07,27,07,24,17.60
2009,07,27,07,25,17.70
2009,07,27,07,26,17.70
2009,07,27,07,27,17.70
2009,07,27,07,28,17.70
2009,07,27,07,29,17.80
2009,07,27,07,30,17.80
2009,07,27,07,31,17.80
2009,07,27,07,32,17.80
2009,07,27,07,33,17.90
2009,07,27,07,34,17.90
2009,07,27,07,35,18.00
2009,07,27,07,36,18.00
2009,07,27,07,37,18.10
2009,07,27,07,38,18.20
2009,07,27,07,39,18.20
2009,07,27,07,40,18.30
2009,07,27,07,41,18.30
2009,07,27,07,42,18.40
2009,07,27,07,43,18.50
2009,07,27,07,44,18.50
2009,07,27,07,45,18.60
2009,07,27,07,46,18.60
2009,07,27,07,47,18.70
2009,07,27,07,48,18.70
2009,07,27,07,49,18.80
2009,07,27,07,50,18.80
2009,07,27,07,51,18.90
2009,07,27,07,52,18.90
2009,07,27,07,53,18.90
2009,07,27,07,54,19.00
2009,07,27,07,55,19.00
2009,07,27,07,56,19.10
2009,07,27,07,57,19.10
2009,07,27,07,58,19.20
2009,07,27,07,59,19.20
2009,07,27,08,00,19.20
2009,07,27,08,01,19.30
2009,07,27,08,02,19.30
2009,07,27,08,03,19.30
2009,07,27,08,04,19.40
2009,07,27,08,05,19.40
2009,07,27,08,06,19.40
2009,07,27,08,07,19.50
2009,07,27,08,08,19.50
2009,07,27,08,09,19.60
2009,07,27,08,10,19.60
2009,07,27,08,11,19.70
2009,07,27,08,12,19.70
2009,07,27,08,13,19.80
2009,07,27,08,14,19.80
2009,07,27,08,15,19.80
2009,07,27,08,16,19.90
2009,07,27,08,17,20.00
2009,07,27,08,18,20.00
2009,07,27,08,19,20.10
2009,07,27,08,20,20.10
2009,07,27,08,21,20.20
2009,07,27,08,22,20.30
2009,07,27,08,23,20.30
2009,07,27,08,24,20.40
2009,07,27,08,25,20.50
2009,07,27,08,26,20.60
2009,07,27,08,27,20.70
2009,07,27,08,28,20.80
2009,07,27,08,29,21.00
2009,07,27,08,30,21.10
2009,07,27,08,31,21.30
2009,07,27,08,32,21.50
2009,07,27,08,33,21.70
2009,07,27,08,34,21.80
2009,07,27,08,35,22.00
2009,07,27,08,36,22.10
2009,07,27,08,37,22.30
2009,07,27,08,38,22.40
2009,07,27,08,39,22.50
2009,07,27,08,40,22.60
2009,07,27,08,41,22.70
2009,07,27,08,42,22.80
2009,07,27,08,43,22.80
2009,07,27,08,44,22.90
2009,07,27,08,45,22.90
2009,07,27,08,46,23.00
2009,07,27,08,47,23.00
2009,07,27,08,48,23.10
2009,07,27,08,49,23.10
2009,07,27,08,50,23.10
2009,07,27,08,51,23.20
2009,07,27,08,52,23.20
2009,07,27,08,53,23.30
2009,07,27,08,54,23.30
2009,07,27,08,55,23.30
2009,07,27,08,56,23.30
2009,07,27,08,57,23.40
2009,07,27,08,58,23.40
2009,07,27,08,59,23.50
2009,07,27,09,00,23.50
2009,07,27,09,01,23.50
2009,07,27,09,02,23.60
2009,07,27,09,03,23.60
2009,07,27,09,04,23.70
2009,07,27,09,05,23.70
2009,07,27,09,06,23.70
2009,07,27,09,07,23.80
2009,07,27,09,08,23.80
2009,07,27,09,09,23.80
2009,07,27,09,10,23.90
2009,07,27,09,11,23.90
2009,07,27,09,12,23.90
2009,07,27,09,13,24.00
2009,07,27,09,14,24.00
2009,07,27,09,15,24.00
2009,07,27,09,16,24.00
2009,07,27,09,17,24.10
2009,07,27,09,18,24.10
2009,07,27,09,19,24.10
2009,07,27,09,20,24.10
2009,07,27,09,21,24.10
2009,07,27,09,22,24.10
2009,07,27,09,23,24.20
2009,07,27,09,24,24.20
2009,07,27,09,25,24.20
2009,07,27,09,26,24.30
2009,07,27,09,27,24.40
2009,07,27,09,28,24.40
2009,07,27,09,29,24.50
2009,07,27,09,30,24.50
2009,07,27,09,31,24.60
2009,07,27,09,32,24.60
2009,07,27,09,33,24.60
2009,07,27,09,34,24.70
2009,07,27,09,35,24.70
2009,07,27,09,36,24.70
2009,07,27,09,37,24.70
2009,07,27,09,38,24.70
2009,07,27,09,39,24.70
2009,07,27,09,40,24.70
2009,07,27,09,41,24.70
2009,07,27,09,42,24.70
2009,07,27,09,43,24.70
2009,07,27,09,44,24.70
2009,07,27,09,45,24.70
2009,07,27,09,46,24.70
2009,07,27,09,47,24.70
2009,07,27,09,48,24.80
2009,07,27,09,49,24.80
2009,07,27,09,50,24.80
2009,07,27,09,51,24.80
2009,07,27,09,52,24.80
2009,07,27,09,53,24.80
2009,07,27,09,54,24.80
2009,07,27,09,55,24.80
2009,07,27,09,56,24.80
2009,07,27,09,57,24.90
2009,07,27,09,58,24.90
2009,07,27,09,59,24.90
2009,07,27,10,00,24.90
2009,07,27,10,01,25.00
2009,07,27,10,02,25.00
2009,07,27,10,03,25.10
2009,07,27,10,04,25.10
2009,07,27,10,05,25.20
2009,07,27,10,06,25.30
2009,07,27,10,07,25.30
2009,07,27,10,08,25.40
2009,07,27,10,09,25.50
2009,07,27,10,10,25.50
2009,07,27,10,11,25.50
2009,07,27,10,12,25.60
2009,07,27,10,13,25.60
2009,07,27,10,14,25.60
2009,07,27,10,15,25.50
2009,07,27,10,16,25.50
2009,07,27,10,17,25.40
2009,07,27,10,18,25.40
2009,07,27,10,19,25.40
2009,07,27,10,20,25.40
2009,07,27,10,21,25.50
2009,07,27,10,22,25.50
2009,07,27,10,23,25.60
2009,07,27,10,24,25.60
2009,07,27,10,25,25.60
2009,07,27,10,26,25.60
2009,07,27,10,27,25.60
2009,07,27,10,28,25.70
2009,07,27,10,29,25.70
2009,07,27,10,30,25.70
2009,07,27,10,31,25.80
2009,07,27,10,32,25.80
2009,07,27,10,33,25.90
2009,07,27,10,34,25.90
2009,07,27,10,35,26.00
2009,07,27,10,36,26.10
2009,07,27,10,37,26.10
2009,07,27,10,38,26.20
2009,07,27,10,39,26.20
2009,07,27,10,40,26.20
2009,07,27,10,41,26.20
2009,07,27,10,42,26.20
2009,07,27,10,43,26.20
2009,07,27,10,44,26.20
2009,07,27,10,45,26.30
2009,07,27,10,46,26.30
2009,07,27,10,47,26.30
2009,07,27,10,48,26.40
2009,07,27,10,49,26.40
2009,07,27,10,50,26.40
2009,07,27,10,51,26.30
2009,07,27,10,52,26.20
2009,07,27,10,53,26.10
2009,07,27,10,54,26.10
2009,07,27,10,55,26.00
2009,07,27,10,56,25.90
2009,07,27,10,57,25.90
2009,07,27,10,58,25.80
2009,07,27,10,59,25.80
2009,07,27,11,00,25.80
2009,07,27,11,01,25.90
2009,07,27,11,02,25.90
2009,07,27,11,03,26.00
2009,07,27,11,04,26.00
2009,07,27,11,05,26.00
2009,07,27,11,06,26.10
2009,07,27,11,07,26.10
2009,07,27,11,08,26.20
2009,07,27,11,09,26.20
2009,07,27,11,10,26.30
2009,07,27,11,11,26.30
2009,07,27,11,12,26.30
2009,07,27,11,13,26.30
2009,07,27,11,14,26.40
2009,07,27,11,15,26.40
2009,07,27,11,16,26.50
2009,07,27,11,17,26.50
2009,07,27,11,18,26.60
2009,07,27,11,19,26.70
2009,07,27,11,20,26.80
2009,07,27,11,21,26.80
2009,07,27,11,22,26.80
2009,07,27,11,23,26.80
2009,07,27,11,24,26.80
2009,07,27,11,25,26.80
2009,07,27,11,26,26.80
2009,07,27,11,27,26.80
2009,07,27,11,28,26.80
2009,07,27,11,29,26.80
2009,07,27,11,30,26.80
2009,07,27,11,31,26.90
2009,07,27,11,32,26.90
2009,07,27,11,33,26.90
2009,07,27,11,34,27.00
2009,07,27,11,35,27.10
2009,07,27,11,36,27.10
2009,07,27,11,37,27.10
2009,07,27,11,38,27.10
2009,07,27,11,39,27.10
2009,07,27,11,40,27.10
2009,07,27,11,41,27.00
2009,07,27,11,42,27.00
2009,07,27,11,43,27.10
2009,07,27,11,44,27.10
2009,07,27,11,45,27.10
2009,07,27,11,46,27.20
2009,07,27,11,47,27.20
2009,07,27,11,48,27.20
2009,07,27,11,49,27.30
2009,07,27,11,50,27.30
2009,07,27,11,51,27.30
2009,07,27,11,52,27.30
2009,07,27,11,53,27.30
2009,07,27,11,54,27.30
2009,07,27,11,55,27.30
2009,07,27,11,56,27.40
2009,07,27,11,57,27.40
2009,07,27,11,58,27.40
2009,07,27,11,59,27.50
2009,07,27,12,00,27.50
2009,07,27,12,01,27.60
2009,07,27,12,02,27.60
2009,07,27,12,03,27.70
2009,07,27,12,04,27.70
2009,07,27,12,05,27.70
2009,07,27,12,06,27.80
2009,07,27,12,07,27.80
2009,07,27,12,08,27.90
2009,07,27,12,09,27.90
2009,07,27,12,10,27.90
2009,07,27,12,11,28.00
2009,07,27,12,12,28.00
2009,07,27,12,13,28.00
2009,07,27,12,14,28.10
2009,07,27,12,15,28.10
2009,07,27,12,16,28.10
2009,07,27,12,17,28.00
2009,07,27,12,18,28.00
2009,07,27,12,19,28.00
2009,07,27,12,20,27.90
2009,07,27,12,21,27.80
2009,07,27,12,22,27.80
2009,07,27,12,23,27.80
2009,07,27,12,24,27.80
2009,07,27,12,25,27.80
2009,07,27,12,26,27.80
2009,07,27,12,27,27.90
2009,07,27,12,28,27.90
2009,07,27,12,29,27.90
2009,07,27,12,30,27.90
2009,07,27,12,31,27.90
2009,07,27,12,32,27.90
2009,07,27,12,33,27.80
2009,07,27,12,34,27.80
2009,07,27,12,35,27.80
2009,07,27,12,36,27.90
2009,07,27,12,37,27.90
2009,07,27,12,38,27.90
2009,07,27,12,39,27.90
2009,07,27,12,40,28.00
2009,07,27,12,41,28.00
2009,07,27,12,42,28.00
2009,07,27,12,43,28.10
2009,07,27,12,44,28.10
2009,07,27,12,45,28.20
2009,07,27,12,46,28.20
2009,07,27,12,47,28.10
2009,07,27,12,48,28.10
2009,07,27,12,49,28.00
2009,07,27,12,50,27.80
2009,07,27,12,51,27.60
2009,07,27,12,52,27.50
2009,07,27,12,53,27.40
2009,07,27,12,54,27.30
2009,07,27,12,55,27.30
2009,07,27,12,56,27.30
2009,07,27,12,57,27.40
2009,07,27,12,58,27.50
2009,07,27,12,59,27.50
2009,07,27,13,00,27.60
2009,07,27,13,01,27.80
2009,07,27,13,02,27.90
2009,07,27,13,03,28.00
2009,07,27,13,04,28.20
2009,07,27,13,05,28.30
2009,07,27,13,06,28.50
2009,07,27,13,07,28.60
2009,07,27,13,08,28.70
2009,07,27,13,09,28.80
2009,07,27,13,10,28.80
2009,07,27,13,11,28.90
2009,07,27,13,12,28.80
2009,07,27,13,13,28.70
2009,07,27,13,14,28.60
2009,07,27,13,15,28.40
2009,07,27,13,16,28.40
2009,07,27,13,17,28.30
2009,07,27,13,18,28.40
2009,07,27,13,19,28.40
2009,07,27,13,20,28.40
2009,07,27,13,21,28.40
2009,07,27,13,22,28.40
2009,07,27,13,23,28.30
2009,07,27,13,24,28.30
2009,07,27,13,25,28.20
2009,07,27,13,26,28.20
2009,07,27,13,27,28.10
2009,07,27,13,28,28.10
2009,07,27,13,29,28.10
2009,07,27,13,30,28.00
2009,07,27,13,31,28.00
2009,07,27,13,32,27.90
2009,07,27,13,33,27.80
2009,07,27,13,34,27.70
2009,07,27,13,35,27.60
2009,07,27,13,36,27.50
2009,07,27,13,37,27.40
2009,07,27,13,38,27.40
2009,07,27,13,39,27.30
2009,07,27,13,40,27.30
2009,07,27,13,41,27.30
2009,07,27,13,42,27.30
2009,07,27,13,43,27.30
2009,07,27,13,44,27.30
2009,07,27,13,45,27.30
2009,07,27,13,46,27.30
2009,07,27,13,47,27.30
2009,07,27,13,48,27.30
2009,07,27,13,49,27.30
2009,07,27,13,50,27.30
2009,07,27,13,51,27.30
2009,07,27,13,52,27.30
2009,07,27,13,53,27.30
2009,07,27,13,54,27.30
2009,07,27,13,55,27.20
2009,07,27,13,56,27.10
2009,07,27,13,57,27.00
2009,07,27,13,58,26.90
2009,07,27,13,59,26.80
2009,07,27,14,00,26.80
2009,07,27,14,01,26.70
2009,07,27,14,02,26.70
2009,07,27,14,03,26.60
2009,07,27,14,04,26.60
2009,07,27,14,05,26.60
2009,07,27,14,06,26.60
2009,07,27,14,07,26.60
2009,07,27,14,08,26.60
2009,07,27,14,09,26.60
2009,07,27,14,10,26.60
2009,07,27,14,11,26.60
2009,07,27,14,12,26.60
2009,07,27,14,13,26.70
2009,07,27,14,14,26.70
2009,07,27,14,15,26.70
2009,07,27,14,16,26.80
2009,07,27,14,17,26.80
2009,07,27,14,18,26.80
2009,07,27,14,19,26.80
2009,07,27,14,20,26.80
2009,07,27,14,21,26.80
2009,07,27,14,22,26.80
2009,07,27,14,23,26.80
2009,07,27,14,24,26.70
2009,07,27,14,25,26.70
2009,07,27,14,26,26.60
2009,07,27,14,27,26.60
2009,07,27,14,28,26.70
2009,07,27,14,29,26.70
2009,07,27,14,30,26.70
2009,07,27,14,31,26.70
2009,07,27,14,32,26.70
2009,07,27,14,33,26.70
2009,07,27,14,34,26.70
2009,07,27,14,35,26.80
2009,07,27,14,36,26.80
2009,07,27,14,37,26.80
2009,07,27,14,38,26.80
2009,07,27,14,39,26.90
2009,07,27,14,40,26.80
2009,07,27,14,41,26.80
2009,07,27,14,42,26.60
2009,07,27,14,43,26.50
2009,07,27,14,44,26.40
2009,07,27,14,45,26.30
2009,07,27,14,46,26.20
2009,07,27,14,47,26.10
2009,07,27,14,48,26.10
2009,07,27,14,49,26.10
2009,07,27,14,50,26.10
2009,07,27,14,51,26.00
2009,07,27,14,52,25.90
2009,07,27,14,53,25.80
2009,07,27,14,54,25.80
2009,07,27,14,55,25.80
2009,07,27,14,56,25.80
2009,07,27,14,57,25.90
2009,07,27,14,58,25.90
2009,07,27,14,59,25.90
2009,07,27,15,00,26.00
2009,07,27,15,01,26.00
2009,07,27,15,02,26.00
2009,07,27,15,03,25.90
2009,07,27,15,04,26.00
2009,07,27,15,05,26.00
2009,07,27,15,06,26.10
2009,07,27,15,07,26.20
2009,07,27,15,08,26.20
2009,07,27,15,09,26.30
2009,07,27,15,10,26.40
2009,07,27,15,11,26.60
2009,07,27,15,12,26.60
2009,07,27,15,13,26.70
2009,07,27,15,14,26.70
2009,07,27,15,15,26.70
2009,07,27,15,16,26.70
2009,07,27,15,17,26.70
2009,07,27,15,18,26.70
2009,07,27,15,19,26.70
2009,07,27,15,20,26.70
2009,07,27,15,21,26.70
2009,07,27,15,22,26.70
2009,07,27,15,23,26.80
2009,07,27,15,24,26.80
2009,07,27,15,25,26.80
2009,07,27,15,26,26.80
2009,07,27,15,27,26.90
2009,07,27,15,28,26.90
2009,07,27,15,29,26.90
2009,07,27,15,30,27.00
2009,07,27,15,31,27.10
2009,07,27,15,32,27.10
2009,07,27,15,33,27.20
2009,07,27,15,34,27.20
2009,07,27,15,35,27.20
2009,07,27,15,36,27.20
2009,07,27,15,37,27.20
2009,07,27,15,38,27.20
2009,07,27,15,39,27.20
2009,07,27,15,40,27.30
2009,07,27,15,41,27.30
2009,07,27,15,42,27.30
2009,07,27,15,43,27.30
2009,07,27,15,44,27.30
2009,07,27,15,45,27.40
2009,07,27,15,46,27.40
2009,07,27,15,47,27.40
2009,07,27,15,48,27.40
2009,07,27,15,49,27.40
2009,07,27,15,50,27.50
2009,07,27,15,51,27.50
2009,07,27,15,52,27.50
2009,07,27,15,53,27.60
2009,07,27,15,54,27.60
2009,07,27,15,55,27.70
2009,07,27,15,56,27.80
2009,07,27,15,57,27.80
2009,07,27,15,58,27.90
2009,07,27,15,59,27.90
2009,07,27,16,00,27.90
2009,07,27,16,01,28.00
2009,07,27,16,02,28.10
2009,07,27,16,03,28.20
2009,07,27,16,04,28.20
2009,07,27,16,05,28.20
2009,07,27,16,06,28.30
2009,07,27,16,07,28.30
2009,07,27,16,08,28.30
2009,07,27,16,09,28.40
2009,07,27,16,10,28.40
2009,07,27,16,11,28.40
2009,07,27,16,12,28.40
2009,07,27,16,13,28.40
2009,07,27,16,14,28.40
2009,07,27,16,15,28.30
2009,07,27,16,16,28.20
2009,07,27,16,17,28.30
2009,07,27,16,18,28.30
2009,07,27,16,19,28.40
2009,07,27,16,20,28.40
2009,07,27,16,21,28.40
2009,07,27,16,22,28.50
2009,07,27,16,23,28.60
2009,07,27,16,24,28.60
2009,07,27,16,25,28.70
2009,07,27,16,26,28.70
2009,07,27,16,27,28.70
2009,07,27,16,28,28.80
2009,07,27,16,29,28.80
2009,07,27,16,30,28.90
2009,07,27,16,31,28.90
2009,07,27,16,32,28.90
2009,07,27,16,33,28.80
2009,07,27,16,34,28.80
2009,07,27,16,35,28.80
2009,07,27,16,36,28.80
2009,07,27,16,37,28.80
2009,07,27,16,38,28.90
2009,07,27,16,39,28.90
2009,07,27,16,40,28.90
2009,07,27,16,41,28.90
2009,07,27,16,42,29.00
2009,07,27,16,43,29.00
2009,07,27,16,44,29.10
2009,07,27,16,45,29.10
2009,07,27,16,46,29.20
2009,07,27,16,47,29.40
2009,07,27,16,48,29.40
2009,07,27,16,49,29.50
2009,07,27,16,50,29.60
2009,07,27,16,51,29.70
2009,07,27,16,52,29.80
2009,07,27,16,53,29.90
2009,07,27,16,54,29.90
2009,07,27,16,55,30.00
2009,07,27,16,56,30.10
2009,07,27,16,57,30.20
2009,07,27,16,58,30.30
2009,07,27,16,59,30.30
2009,07,27,17,00,30.40
2009,07,27,17,01,30.40
2009,07,27,17,02,30.50
2009,07,27,17,03,30.50
2009,07,27,17,04,30.60
2009,07,27,17,05,30.70
2009,07,27,17,06,30.70
2009,07,27,17,07,30.70
2009,07,27,17,08,30.70
2009,07,27,17,09,30.70
2009,07,27,17,10,30.70
2009,07,27,17,11,30.70
2009,07,27,17,12,30.60
2009,07,27,17,13,30.60
2009,07,27,17,14,30.60
2009,07,27,17,15,30.70
2009,07,27,17,16,30.70
2009,07,27,17,17,30.70
2009,07,27,17,18,30.70
2009,07,27,17,19,30.70